Regional Weather Roundup
Issued by NWS

Home | Current Version | Previous Version | Graphics & Text | Print | Product List | Glossary On
Versions: 1 2 3 4 5 6 7 8 9 10 11 12 13 14 15 16 17 18 19 20 21 22 23 24 25 26 27 28 29 30 31 32 33 34 35 36 37 38 39 40 41 42 43 44 45 46 47 48 49 50
000
ASUS43 KIND 241059
RWRIN

WEATHER ROUNDUP FOR INDIANA
NATIONAL WEATHER SERVICE INDIANAPOLIS IN
700 AM EDT FRI MAR 24 2017

NOTE: "FAIR" INDICATES FEW OR NO CLOUDS BELOW 12,000 FEET WITH NO
SIGNIFICANT WEATHER AND/OR OBSTRUCTIONS TO VISIBILITY.

* - STATION DOES NOT REPORT WEATHER SUCH AS PRECIPITATION OR FOG.

+ - STATION NOT QUALITY CONTROLLED BY THE NATIONAL WEATHER SERVICE.
    USE DATA WITH CAUTION...ESPECIALLY DEWPOINT AND RELATIVE
    HUMIDITY OBSERVATIONS.

INZ001>003-010>013-019-020-241200-
NORTHWEST INDIANA

CITY           SKY/WX    TMP DP  RH WIND       PRES   REMARKS
GARY /AIRPORT/ MOCLDY    52  39  62 S10       29.95R
MONTICELLO +   CLOUDY    46  39  76 S6        30.01R

$$

LMZ046-743>745-241200-
SOUTHERN LAKE MICHIGAN

STATION/POSITION TIME  TEMP    WIND        PRES    WAVE
                       AIR SEA DIR/SP/G            HT
                 (UTC) (F)     (DEG/KT/KT) (MB)    (FT)
BURNS HARBOR     1040   50     180/ 16/ 22 1013.9F
MICHIGAN CITY    1030   52     170/ 16/ 20   N/A

$$

INZ004-005-014>016-021>024-241200-
NORTH CENTRAL INDIANA

CITY           SKY/WX    TMP DP  RH WIND       PRES   REMARKS
ELKHART        CLOUDY    48  37  66 S7        30.00
GOSHEN         CLOUDY    50  38  63 S13       30.00R
SOUTH BEND     PTCLDY    49  39  68 S10       29.99R

$$

INZ006>009-017-018-025>027-241200-
NORTHEAST INDIANA

CITY           SKY/WX    TMP DP  RH WIND       PRES   REMARKS
ANGOLA *+      CLEAR     48  37  66 S9        30.01R
FORT WAYNE     CLOUDY    49  42  77 S13       30.05R
KENDALLVILLE + CLOUDY    49  40  69 S12       30.02R

$$

INZ028-029-035-036-043>045-051>053-241200-
WEST CENTRAL INDIANA

CITY           SKY/WX    TMP DP  RH WIND       PRES   REMARKS
CRAWFORDSVL +  CLOUDY    55  46  74 SW14      30.03R
GREENCASTLE +  CLOUDY    59  45  58 S13G20    30.05R
LAFAYETTE      PTCLDY    55  45  68 S7        30.02R
TERRE HAUTE    PTCLDY    59  47  64 S17G23    30.05R

$$

INZ030>032-037>040-046>048-054>057-064-065-241200-
CENTRAL INDIANA

CITY           SKY/WX    TMP DP  RH WIND       PRES   REMARKS
COLUMBUS       CLEAR     50  45  81 S9        30.11
INDIANAPOLIS   PTCLDY    54  44  69 S12       30.06R
-EAGLE CREEK   PTCLDY    55  43  63 S7        30.05R
KOKOMO +       CLOUDY    50  42  74 S9        30.05R
SHELBYVILLE    CLEAR     54  42  64 S15       30.09R

$$

INZ033-034-041-042-049-050-058-059-241200-
EAST CENTRAL INDIANA

CITY           SKY/WX    TMP DP  RH WIND       PRES   REMARKS
MUNCIE         MOCLDY    55  42  61 S17G25    30.06R
RICHMOND +     PTCLDY    46  41  81 S13       30.13R

$$

INZ060-061-067>069-081>083-085>088-241200-
SOUTHWEST INDIANA

CITY           SKY/WX    TMP DP  RH WIND       PRES   REMARKS
EVANSVILLE     CLEAR     58  49  72 S9        30.09R
HUNTINGBURG *+ CLEAR     58  48  69 S14G22    30.12R

$$

INZ062-063-066-070>080-084-089>092-241200-
SOUTH CENTRAL AND SOUTHEAST INDIANA

CITY           SKY/WX    TMP DP  RH WIND       PRES   REMARKS
BLOOMINGTON    CLEAR     59  46  62 S14       30.08R
MADISON *+     CLEAR     55  39  54 S16       30.16R
SEYMOUR +      CLEAR     55  43  62 S10       30.12R

$$





USA.gov is the U.S. government's official web portal to all federal, state and local government web resources and services.